This demonstration page uses our WeatherBlox Daily Observations layout. Learn more.

Left ArrowRight Arrow

39.51506, -84.39828

Hourly Observations for May 15, 2018

Temp ( °F °C ) Dew Point ( °F °C ) Humidity (%) Winds ( mph kmh ) Pressure ( in mb ) Visibility ( mi km ) Precip ( " mm )
12:15 am 00:15 Clear 69 20.3 65 18.4 89 89 SSW 3 6 29.85 1011 10 16 N/A
12:35 am 00:35 Clear 69 20.4 65 18.4 88 88 SW 5 7 29.85 1011 10 16 N/A
12:55 am 00:55 Clear 68 20 65 18.4 91 91 SSW 5 7 29.85 1011 10 16 N/A
1:15 am 01:15 Clear 71 21.7 64 17.8 79 79 SSW 6 9 29.85 1011 10 16 N/A
1:35 am 01:35 Clear 70 20.9 64 17.7 82 82 SSW 5 7 29.85 1011 7 11 N/A
1:55 am 01:55 Clear 70 21.1 64 17.8 82 82 SSW 3 6 29.85 1011 7 11 N/A
2:15 am 02:15 Clear 69 20.4 64 17.7 85 85 SW 3 6 29.85 1011 10 16 N/A
2:35 am 02:35 Clear 69 20.4 64 17.9 86 86 SW 6 9 29.85 1011 10 16 N/A
2:55 am 02:55 Clear 71 21.5 64 17.9 80 80 SSW 6 9 29.85 1011 10 16 N/A
3:15 am 03:15 Clear 70 21.2 64 17.7 81 81 SW 6 9 29.85 1011 10 16 N/A
3:35 am 03:35 Clear 69 20.4 64 17.6 84 84 SSW 5 7 29.85 1011 10 16 N/A
3:55 am 03:55 Clear 69 20.5 64 17.8 85 85 N N/A 29.85 1011 7 11 N/A
4:15 am 04:15 Clear 67 19.6 64 18 91 91 N N/A 29.83 1010 7 11 N/A
4:35 am 04:35 Clear with Mist and Fog 65 18.6 64 17.7 95 95 WNW 3 6 29.85 1011 7 11 N/A
4:55 am 04:55 Clear with Mist and Fog 65 18.5 64 18 97 97 N N/A 29.85 1011 5 8 N/A
5:15 am 05:15 Partly Cloudy 66 18.9 64 17.6 92 92 SW 5 7 29.85 1011 7 11 N/A
5:35 am 05:35 Clear 69 20.4 64 17.9 86 86 S 7 11 29.85 1011 10 16 N/A
5:55 am 05:55 Clear 69 20.4 64 18 86 86 SW 7 11 29.85 1011 10 16 N/A
6:15 am 06:15 Clear 69 20.4 65 18.1 87 87 SW 5 7 29.85 1011 7 11 N/A
6:35 am 06:35 Sunny 68 20.1 64 17.9 87 87 WSW 5 7 29.88 1012 7 11 N/A
6:55 am 06:55 Sunny 68 20.2 64 17.7 86 86 SSW 7 11 29.88 1012 7 11 N/A
7:15 am 07:15 Sunny 70 21.3 64 17.8 81 81 SSW 8 13 29.88 1012 10 16 N/A
7:35 am 07:35 Sunny 72 22 64 17.5 76 76 SSW 8 13 29.88 1012 10 16 N/A
7:55 am 07:55 Sunny 72 22.4 64 17.6 74 74 SW 8 13 29.88 1012 7 11 N/A
8:15 am 08:15 Sunny 74 23.2 63 17 68 68 SW 8 13 29.88 1012 10 16 N/A
8:35 am 08:35 Sunny 74 23.6 63 17.2 67 67 SW 9 15 29.88 1012 10 16 N/A
8:55 am 08:55 Sunny 75 24 62 16.9 65 65 WSW 8 13 29.88 1012 10 16 N/A
9:15 am 09:15 Sunny 76 24.4 63 17.3 65 65 WSW 9 15 29.88 1012 10 16 N/A
9:35 am 09:35 Sunny 76 24.7 63 17.3 64 64 SSW 8 13 29.91 1013 10 16 N/A
9:55 am 09:55 Sunny 77 25.2 64 17.8 64 64 WSW 9 15 29.91 1013 10 16 N/A
10:15 am 10:15 Sunny 78 25.7 64 17.6 61 61 SW 9 15 29.91 1013 10 16 N/A
10:35 am 10:35 Sunny 79 26 63 17.3 59 59 SW 7 11 29.91 1013 10 16 N/A
10:55 am 10:55 Sunny 80 26.4 64 18 60 60 SW 5 7 29.91 1013 10 16 N/A
11:15 am 11:15 Sunny 80 26.8 64 17.5 57 57 SSW 7 11 29.91 1013 10 16 N/A
11:35 am 11:35 Sunny 81 27.1 64 17.7 56 56 SSW 8 13 29.91 1013 10 16 N/A
11:55 am 11:55 Sunny 81 27.4 64 17.8 56 56 SW 9 15 29.88 1012 10 16 N/A
12:15 pm 12:15 Sunny 82 28 65 18.2 55 55 SSW 8 13 29.88 1012 10 16 N/A
12:35 pm 12:35 Sunny 84 28.8 65 18.3 53 53 SW 12 19 29.88 1012 10 16 N/A
12:55 pm 12:55 Sunny 85 29.2 64 17.6 50 50 WSW 6 9 29.88 1012 10 16 N/A
1:15 pm 13:15 Sunny 84 29.1 62 16.5 47 47 WSW 6 9 29.88 1012 10 16 N/A
1:35 pm 13:35 Partly Cloudy 85 29.7 64 17.6 48 48 SW 9 15 29.88 1012 10 16 N/A
1:55 pm 13:55 Partly Cloudy 85 29.4 63 17.2 48 48 SE 5 7 29.88 1012 10 16 N/A
2:15 pm 14:15 Partly Cloudy 86 29.9 62 16.9 46 46 SW 7 11 29.85 1011 10 16 N/A
2:35 pm 14:35 Mostly Cloudy 85 29.7 63 17.4 48 48 W 3 6 29.85 1011 10 16 N/A
2:55 pm 14:55 Mostly Cloudy 87 30.6 62 16.9 44 44 W 9 15 29.85 1011 10 16 N/A
3:15 pm 15:15 Cloudy 86 30 65 18.1 49 49 WSW 7 11 29.85 1011 10 16 N/A
3:35 pm 15:35 Mostly Cloudy 85 29.7 62 16.6 45 45 WSW 6 9 29.83 1010 10 16 N/A
3:55 pm 15:55 Sunny 88 31 64 17.5 44 44 WNW 8 13 29.83 1010 10 16 N/A
4:15 pm 16:15 Partly Cloudy 84 28.8 63 17.3 50 50 NW 9 15 29.83 1010 10 16 N/A
4:35 pm 16:35 Partly Cloudy with Nearby Thunderstorms 82 28 64 17.7 54 54 NNW 6 9 29.83 1010 10 16 N/A
4:55 pm 16:55 Cloudy with Strong Thunderstorms 72 22.1 66 18.8 82 82 NW 23 37 29.88 1012 3 4 0.08 2.03
5:15 pm 17:15 Partly Cloudy with Thunderstorms 77 24.8 68 19.9 74 74 NNW 7 11 29.85 1011 10 16 N/A
5:35 pm 17:35 Partly Cloudy 77 25 71 21.4 80 80 N 5 7 29.85 1011 10 16 N/A
5:55 pm 17:55 Mostly Cloudy 79 26.1 70 21 74 74 N 15 24 29.88 1012 10 16 N/A
6:15 pm 18:15 Sunny 79 25.9 69 20.4 72 72 NNE 14 22 29.88 1012 10 16 N/A
6:35 pm 18:35 Sunny 77 25.1 68 20 73 73 NNE 15 24 29.88 1012 10 16 N/A
6:55 pm 18:55 Sunny 76 24.3 67 19.4 74 74 NE 13 20 29.88 1012 10 16 N/A
7:15 pm 19:15 Sunny 75 24.1 66 19 73 73 NE 9 15 29.88 1012 10 16 N/A
7:35 pm 19:35 Sunny 74 23.5 66 18.9 75 75 NE 7 11 29.88 1012 10 16 N/A
7:55 pm 19:55 Sunny 73 22.9 66 18.9 78 78 ENE 6 9 29.88 1012 10 16 N/A
8:15 pm 20:15 Sunny 73 22.6 67 19.2 81 81 NNE 3 6 29.88 1012 10 16 N/A
8:35 pm 20:35 Sunny 72 22.2 66 19.1 83 83 N 5 7 29.88 1012 10 16 N/A
8:55 pm 20:55 Clear 71 21.9 66 19 84 84 NNE 3 6 29.88 1012 10 16 N/A
9:15 pm 21:15 Clear 71 21.4 66 19.1 87 87 NNW 3 6 29.91 1013 10 16 N/A
9:35 pm 21:35 Partly Cloudy 70 21.3 66 18.8 86 86 N 6 9 29.91 1013 10 16 N/A
9:55 pm 21:55 Clear 70 21.2 64 17.9 82 82 NNE 5 7 29.91 1013 7 11 N/A
10:15 pm 22:15 Mostly Cloudy with Haze 70 20.9 64 17.7 82 82 NNE 5 7 29.91 1013 1 1 N/A
10:35 pm 22:35 Mostly Cloudy with Haze 69 20.7 64 17.8 84 84 N 6 9 29.94 1014 7 11 N/A
10:55 pm 22:55 Partly Cloudy 69 20.5 64 17.9 85 85 N 5 7 29.94 1014 10 16 N/A
11:15 pm 23:15 Partly Cloudy 69 20.4 65 18.2 87 87 NNE 7 11 29.94 1014 10 16 N/A
11:35 pm 23:35 Clear 68 20.2 65 18.3 89 89 NNE 5 7 29.94 1014 10 16 N/A
11:55 pm 23:55 Clear 69 20.4 65 18.4 88 88 ENE 6 9 29.94 1014 10 16 N/A

Powered by AerisWeather